Year,Month,Day,Hour,Minute,Value (Times are PST for temperature in C)
2017,06,26,00,00,19.90
2017,06,26,00,01,19.80
2017,06,26,00,02,19.80
2017,06,26,00,03,19.80
2017,06,26,00,04,19.80
2017,06,26,00,05,19.80
2017,06,26,00,06,19.80
2017,06,26,00,07,19.80
2017,06,26,00,08,19.70
2017,06,26,00,09,19.70
2017,06,26,00,10,19.70
2017,06,26,00,11,19.70
2017,06,26,00,12,19.70
2017,06,26,00,13,19.70
2017,06,26,00,14,19.70
2017,06,26,00,15,19.70
2017,06,26,00,16,19.70
2017,06,26,00,17,19.70
2017,06,26,00,18,19.70
2017,06,26,00,19,19.70
2017,06,26,00,20,19.70
2017,06,26,00,21,19.70
2017,06,26,00,22,19.70
2017,06,26,00,23,19.60
2017,06,26,00,24,19.60
2017,06,26,00,25,19.60
2017,06,26,00,26,19.60
2017,06,26,00,27,19.60
2017,06,26,00,28,19.60
2017,06,26,00,29,19.60
2017,06,26,00,30,19.60
2017,06,26,00,31,19.60
2017,06,26,00,32,19.60
2017,06,26,00,33,19.60
2017,06,26,00,34,19.60
2017,06,26,00,35,19.60
2017,06,26,00,36,19.60
2017,06,26,00,37,19.60
2017,06,26,00,38,19.60
2017,06,26,00,39,19.60
2017,06,26,00,40,19.70
2017,06,26,00,41,19.70
2017,06,26,00,42,19.70
2017,06,26,00,43,19.70
2017,06,26,00,44,19.70
2017,06,26,00,45,19.70
2017,06,26,00,46,19.70
2017,06,26,00,47,19.70
2017,06,26,00,48,19.70
2017,06,26,00,49,19.70
2017,06,26,00,50,19.70
2017,06,26,00,51,19.80
2017,06,26,00,52,19.80
2017,06,26,00,53,19.80
2017,06,26,00,54,19.80
2017,06,26,00,55,19.80
2017,06,26,00,56,19.80
2017,06,26,00,57,19.80
2017,06,26,00,58,19.80
2017,06,26,00,59,19.70
2017,06,26,01,00,19.80
2017,06,26,01,01,19.80
2017,06,26,01,02,19.80
2017,06,26,01,03,19.90
2017,06,26,01,04,20.10
2017,06,26,01,05,20.20
2017,06,26,01,06,20.30
2017,06,26,01,07,20.30
2017,06,26,01,08,20.30
2017,06,26,01,09,20.30
2017,06,26,01,10,20.30
2017,06,26,01,11,20.30
2017,06,26,01,12,20.30
2017,06,26,01,13,20.30
2017,06,26,01,14,20.30
2017,06,26,01,15,20.30
2017,06,26,01,16,20.20
2017,06,26,01,17,20.20
2017,06,26,01,18,20.20
2017,06,26,01,19,20.20
2017,06,26,01,20,20.10
2017,06,26,01,21,20.10
2017,06,26,01,22,20.10
2017,06,26,01,23,20.10
2017,06,26,01,24,20.10
2017,06,26,01,25,20.10
2017,06,26,01,26,20.20
2017,06,26,01,27,20.30
2017,06,26,01,28,20.40
2017,06,26,01,29,20.40
2017,06,26,01,30,20.40
2017,06,26,01,31,20.40
2017,06,26,01,32,20.40
2017,06,26,01,33,20.40
2017,06,26,01,34,20.40
2017,06,26,01,35,20.40
2017,06,26,01,36,20.40
2017,06,26,01,37,20.40
2017,06,26,01,38,20.40
2017,06,26,01,39,20.40
2017,06,26,01,40,20.40
2017,06,26,01,41,20.40
2017,06,26,01,42,20.40
2017,06,26,01,43,20.30
2017,06,26,01,44,20.30
2017,06,26,01,45,20.20
2017,06,26,01,46,20.10
2017,06,26,01,47,20.00
2017,06,26,01,48,20.00
2017,06,26,01,49,19.90
2017,06,26,01,50,19.90
2017,06,26,01,51,19.90
2017,06,26,01,52,19.90
2017,06,26,01,53,19.90
2017,06,26,01,54,19.90
2017,06,26,01,55,19.90
2017,06,26,01,56,19.90
2017,06,26,01,57,20.00
2017,06,26,01,58,20.10
2017,06,26,01,59,20.10
2017,06,26,02,00,20.20
2017,06,26,02,01,20.30
2017,06,26,02,02,20.30
2017,06,26,02,03,20.30
2017,06,26,02,04,20.30
2017,06,26,02,05,20.40
2017,06,26,02,06,20.40
2017,06,26,02,07,20.50
2017,06,26,02,08,20.50
2017,06,26,02,09,20.50
2017,06,26,02,10,20.60
2017,06,26,02,11,20.60
2017,06,26,02,12,20.60
2017,06,26,02,13,20.60
2017,06,26,02,14,20.60
2017,06,26,02,15,20.60
2017,06,26,02,16,20.60
2017,06,26,02,17,20.60
2017,06,26,02,18,20.60
2017,06,26,02,19,20.70
2017,06,26,02,20,20.60
2017,06,26,02,21,20.60
2017,06,26,02,22,20.60
2017,06,26,02,23,20.50
2017,06,26,02,24,20.50
2017,06,26,02,25,20.30
2017,06,26,02,26,20.20
2017,06,26,02,27,20.10
2017,06,26,02,28,20.00
2017,06,26,02,29,19.90
2017,06,26,02,30,19.90
2017,06,26,02,31,19.80
2017,06,26,02,32,19.80
2017,06,26,02,33,19.90
2017,06,26,02,34,20.00
2017,06,26,02,35,20.10
2017,06,26,02,36,20.30
2017,06,26,02,37,20.40
2017,06,26,02,38,20.40
2017,06,26,02,39,20.50
2017,06,26,02,40,20.60
2017,06,26,02,41,20.70
2017,06,26,02,42,20.60
2017,06,26,02,43,20.60
2017,06,26,02,44,20.50
2017,06,26,02,45,20.40
2017,06,26,02,46,20.30
2017,06,26,02,47,20.20
2017,06,26,02,48,20.00
2017,06,26,02,49,20.00
2017,06,26,02,50,19.90
2017,06,26,02,51,19.80
2017,06,26,02,52,19.80
2017,06,26,02,53,19.80
2017,06,26,02,54,19.70
2017,06,26,02,55,19.60
2017,06,26,02,56,19.60
2017,06,26,02,57,19.60
2017,06,26,02,58,19.60
2017,06,26,02,59,19.70
2017,06,26,03,00,19.70
2017,06,26,03,01,19.70
2017,06,26,03,02,19.70
2017,06,26,03,03,19.70
2017,06,26,03,04,19.70
2017,06,26,03,05,19.70
2017,06,26,03,06,19.70
2017,06,26,03,07,19.60
2017,06,26,03,08,19.60
2017,06,26,03,09,19.60
2017,06,26,03,10,19.60
2017,06,26,03,11,19.60
2017,06,26,03,12,19.50
2017,06,26,03,13,19.50
2017,06,26,03,14,19.50
2017,06,26,03,15,19.60
2017,06,26,03,16,19.60
2017,06,26,03,17,19.60
2017,06,26,03,18,19.70
2017,06,26,03,19,19.70
2017,06,26,03,20,19.80
2017,06,26,03,21,19.80
2017,06,26,03,22,19.80
2017,06,26,03,23,19.70
2017,06,26,03,24,19.70
2017,06,26,03,25,19.70
2017,06,26,03,26,19.60
2017,06,26,03,27,19.50
2017,06,26,03,28,19.40
2017,06,26,03,29,19.20
2017,06,26,03,30,19.10
2017,06,26,03,31,19.00
2017,06,26,03,32,18.90
2017,06,26,03,33,18.80
2017,06,26,03,34,18.70
2017,06,26,03,35,18.60
2017,06,26,03,36,18.50
2017,06,26,03,37,18.40
2017,06,26,03,38,18.30
2017,06,26,03,39,18.30
2017,06,26,03,40,18.20
2017,06,26,03,41,18.20
2017,06,26,03,42,18.20
2017,06,26,03,43,18.20
2017,06,26,03,44,18.10
2017,06,26,03,45,18.10
2017,06,26,03,46,18.10
2017,06,26,03,47,18.00
2017,06,26,03,48,18.00
2017,06,26,03,49,18.00
2017,06,26,03,50,17.90
2017,06,26,03,51,17.90
2017,06,26,03,52,17.90
2017,06,26,03,53,17.90
2017,06,26,03,54,17.90
2017,06,26,03,55,17.80
2017,06,26,03,56,17.70
2017,06,26,03,57,17.70
2017,06,26,03,58,17.70
2017,06,26,03,59,17.60
2017,06,26,04,00,17.60
2017,06,26,04,01,17.60
2017,06,26,04,02,17.60
2017,06,26,04,03,17.60
2017,06,26,04,04,17.50
2017,06,26,04,05,17.40
2017,06,26,04,06,17.40
2017,06,26,04,07,17.40
2017,06,26,04,08,17.30
2017,06,26,04,09,17.30
2017,06,26,04,10,17.30
2017,06,26,04,11,17.30
2017,06,26,04,12,17.20
2017,06,26,04,13,17.20
2017,06,26,04,14,17.20
2017,06,26,04,15,17.20
2017,06,26,04,16,17.20
2017,06,26,04,17,17.10
2017,06,26,04,18,17.00
2017,06,26,04,19,16.90
2017,06,26,04,20,16.80
2017,06,26,04,21,16.70
2017,06,26,04,22,16.70
2017,06,26,04,23,16.60
2017,06,26,04,24,16.50
2017,06,26,04,25,16.50
2017,06,26,04,26,16.40
2017,06,26,04,27,16.40
2017,06,26,04,28,16.30
2017,06,26,04,29,16.30
2017,06,26,04,30,16.30
2017,06,26,04,31,16.30
2017,06,26,04,32,16.20
2017,06,26,04,33,16.20
2017,06,26,04,34,16.20
2017,06,26,04,35,16.20
2017,06,26,04,36,16.20
2017,06,26,04,37,16.20
2017,06,26,04,38,16.10
2017,06,26,04,39,16.10
2017,06,26,04,40,16.10
2017,06,26,04,41,16.10
2017,06,26,04,42,16.10
2017,06,26,04,43,16.10
2017,06,26,04,44,16.10
2017,06,26,04,45,16.10
2017,06,26,04,46,16.00
2017,06,26,04,47,16.00
2017,06,26,04,48,16.00
2017,06,26,04,49,16.00
2017,06,26,04,50,16.00
2017,06,26,04,51,16.00
2017,06,26,04,52,16.00
2017,06,26,04,53,16.00
2017,06,26,04,54,16.00
2017,06,26,04,55,16.00
2017,06,26,04,56,16.00
2017,06,26,04,57,16.00
2017,06,26,04,58,15.90
2017,06,26,04,59,15.90
2017,06,26,05,00,15.90
2017,06,26,05,01,15.80
2017,06,26,05,02,15.80
2017,06,26,05,03,15.70
2017,06,26,05,04,15.70
2017,06,26,05,05,15.70
2017,06,26,05,06,15.70
2017,06,26,05,07,15.70
2017,06,26,05,08,15.70
2017,06,26,05,09,15.70
2017,06,26,05,10,15.70
2017,06,26,05,11,15.70
2017,06,26,05,12,15.60
2017,06,26,05,13,15.60
2017,06,26,05,14,15.60
2017,06,26,05,15,15.50
2017,06,26,05,16,15.50
2017,06,26,05,17,15.50
2017,06,26,05,18,15.50
2017,06,26,05,19,15.40
2017,06,26,05,20,15.40
2017,06,26,05,21,15.40
2017,06,26,05,22,15.40
2017,06,26,05,23,15.30
2017,06,26,05,24,15.30
2017,06,26,05,25,15.30
2017,06,26,05,26,15.30
2017,06,26,05,27,15.30
2017,06,26,05,28,15.30
2017,06,26,05,29,15.20
2017,06,26,05,30,15.20
2017,06,26,05,31,15.20
2017,06,26,05,32,15.20
2017,06,26,05,33,15.20
2017,06,26,05,34,15.20
2017,06,26,05,35,15.20
2017,06,26,05,36,15.20
2017,06,26,05,37,15.10
2017,06,26,05,38,15.20
2017,06,26,05,39,15.20
2017,06,26,05,40,15.20
2017,06,26,05,41,15.20
2017,06,26,05,42,15.20
2017,06,26,05,43,15.20
2017,06,26,05,44,15.20
2017,06,26,05,45,15.20
2017,06,26,05,46,15.20
2017,06,26,05,47,15.30
2017,06,26,05,48,15.30
2017,06,26,05,49,15.30
2017,06,26,05,50,15.30
2017,06,26,05,51,15.30
2017,06,26,05,52,15.20
2017,06,26,05,53,15.20
2017,06,26,05,54,15.20
2017,06,26,05,55,15.20
2017,06,26,05,56,15.20
2017,06,26,05,57,15.20
2017,06,26,05,58,15.10
2017,06,26,05,59,15.10
2017,06,26,06,00,15.10
2017,06,26,06,01,15.00
2017,06,26,06,02,15.00
2017,06,26,06,03,15.00
2017,06,26,06,04,15.00
2017,06,26,06,05,15.00
2017,06,26,06,06,15.00
2017,06,26,06,07,15.00
2017,06,26,06,08,15.00
2017,06,26,06,09,15.00
2017,06,26,06,10,14.90
2017,06,26,06,11,14.90
2017,06,26,06,12,14.90
2017,06,26,06,13,14.90
2017,06,26,06,14,14.90
2017,06,26,06,15,14.90
2017,06,26,06,16,14.90
2017,06,26,06,17,14.90
2017,06,26,06,18,14.90
2017,06,26,06,19,14.90
2017,06,26,06,20,15.00
2017,06,26,06,21,15.00
2017,06,26,06,22,15.00
2017,06,26,06,23,15.10
2017,06,26,06,24,15.10
2017,06,26,06,25,15.20
2017,06,26,06,26,15.20
2017,06,26,06,27,15.20
2017,06,26,06,28,15.30
2017,06,26,06,29,15.30
2017,06,26,06,30,15.40
2017,06,26,06,31,15.40
2017,06,26,06,32,15.40
2017,06,26,06,33,15.50
2017,06,26,06,34,15.50
2017,06,26,06,35,15.60
2017,06,26,06,36,15.60
2017,06,26,06,37,15.60
2017,06,26,06,38,15.60
2017,06,26,06,39,15.60
2017,06,26,06,40,15.70
2017,06,26,06,41,15.70
2017,06,26,06,42,15.70
2017,06,26,06,43,15.80
2017,06,26,06,44,15.90
2017,06,26,06,45,15.90
2017,06,26,06,46,16.00
2017,06,26,06,47,16.10
2017,06,26,06,48,16.20
2017,06,26,06,49,16.20
2017,06,26,06,50,16.30
2017,06,26,06,51,16.40
2017,06,26,06,52,16.60
2017,06,26,06,53,16.70
2017,06,26,06,54,16.70
2017,06,26,06,55,16.80
2017,06,26,06,56,16.80
2017,06,26,06,57,16.90
2017,06,26,06,58,17.00
2017,06,26,06,59,17.00
2017,06,26,07,00,17.10
2017,06,26,07,01,17.20
2017,06,26,07,02,17.20
2017,06,26,07,03,17.20
2017,06,26,07,04,17.20
2017,06,26,07,05,17.20
2017,06,26,07,06,17.20
2017,06,26,07,07,17.20
2017,06,26,07,08,17.20
2017,06,26,07,09,17.20
2017,06,26,07,10,17.20
2017,06,26,07,11,17.20
2017,06,26,07,12,17.20
2017,06,26,07,13,17.20
2017,06,26,07,14,17.30
2017,06,26,07,15,17.30
2017,06,26,07,16,17.30
2017,06,26,07,17,17.40
2017,06,26,07,18,17.50
2017,06,26,07,19,17.60
2017,06,26,07,20,17.70
2017,06,26,07,21,17.80
2017,06,26,07,22,17.90
2017,06,26,07,23,18.00
2017,06,26,07,24,18.10
2017,06,26,07,25,18.10
2017,06,26,07,26,18.20
2017,06,26,07,27,18.20
2017,06,26,07,28,18.20
2017,06,26,07,29,18.20
2017,06,26,07,30,18.20
2017,06,26,07,31,18.20
2017,06,26,07,32,18.20
2017,06,26,07,33,18.20
2017,06,26,07,34,18.30
2017,06,26,07,35,18.30
2017,06,26,07,36,18.30
2017,06,26,07,37,18.30
2017,06,26,07,38,18.30
2017,06,26,07,39,18.30
2017,06,26,07,40,18.30
2017,06,26,07,41,18.30
2017,06,26,07,42,18.20
2017,06,26,07,43,18.20
2017,06,26,07,44,18.20
2017,06,26,07,45,18.30
2017,06,26,07,46,18.30
2017,06,26,07,47,18.40
2017,06,26,07,48,18.50
2017,06,26,07,49,18.50
2017,06,26,07,50,18.60
2017,06,26,07,51,18.60
2017,06,26,07,52,18.70
2017,06,26,07,53,18.80
2017,06,26,07,54,18.80
2017,06,26,07,55,18.80
2017,06,26,07,56,18.90
2017,06,26,07,57,18.90
2017,06,26,07,58,18.90
2017,06,26,07,59,18.90
2017,06,26,08,00,18.90
2017,06,26,08,01,18.90
2017,06,26,08,02,18.90
2017,06,26,08,03,19.00
2017,06,26,08,04,19.00
2017,06,26,08,05,19.10
2017,06,26,08,06,19.20
2017,06,26,08,07,19.30
2017,06,26,08,08,19.40
2017,06,26,08,09,19.50
2017,06,26,08,10,19.60
2017,06,26,08,11,19.60
2017,06,26,08,12,19.50
2017,06,26,08,13,19.40
2017,06,26,08,14,19.30
2017,06,26,08,15,19.30
2017,06,26,08,16,19.30
2017,06,26,08,17,19.30
2017,06,26,08,18,19.30
2017,06,26,08,19,19.30
2017,06,26,08,20,19.30
2017,06,26,08,21,19.20
2017,06,26,08,22,19.20
2017,06,26,08,23,19.10
2017,06,26,08,24,19.10
2017,06,26,08,25,19.10
2017,06,26,08,26,19.10
2017,06,26,08,27,19.20
2017,06,26,08,28,19.30
2017,06,26,08,29,19.50
2017,06,26,08,30,19.60
2017,06,26,08,31,19.70
2017,06,26,08,32,19.80
2017,06,26,08,33,19.90
2017,06,26,08,34,20.10
2017,06,26,08,35,20.20
2017,06,26,08,36,20.30
2017,06,26,08,37,20.40
2017,06,26,08,38,20.40
2017,06,26,08,39,20.50
2017,06,26,08,40,20.60
2017,06,26,08,41,20.70
2017,06,26,08,42,20.80
2017,06,26,08,43,20.80
2017,06,26,08,44,20.90
2017,06,26,08,45,20.90
2017,06,26,08,46,20.80
2017,06,26,08,47,20.80
2017,06,26,08,48,20.80
2017,06,26,08,49,20.80
2017,06,26,08,50,20.80
2017,06,26,08,51,20.80
2017,06,26,08,52,20.80
2017,06,26,08,53,20.80
2017,06,26,08,54,20.80
2017,06,26,08,55,20.90
2017,06,26,08,56,21.00
2017,06,26,08,57,21.10
2017,06,26,08,58,21.10
2017,06,26,08,59,21.20
2017,06,26,09,00,21.20
2017,06,26,09,01,21.30
2017,06,26,09,02,21.40
2017,06,26,09,03,21.50
2017,06,26,09,04,21.50
2017,06,26,09,05,21.40
2017,06,26,09,06,21.50
2017,06,26,09,07,21.40
2017,06,26,09,08,21.40
2017,06,26,09,09,21.40
2017,06,26,09,10,21.50
2017,06,26,09,11,21.50
2017,06,26,09,12,21.50
2017,06,26,09,13,21.60
2017,06,26,09,14,21.60
2017,06,26,09,15,21.70
2017,06,26,09,16,21.80
2017,06,26,09,17,21.90
2017,06,26,09,18,21.90
2017,06,26,09,19,21.80
2017,06,26,09,20,21.70
2017,06,26,09,21,21.70
2017,06,26,09,22,21.70
2017,06,26,09,23,21.60
2017,06,26,09,24,21.70
2017,06,26,09,25,21.70
2017,06,26,09,26,21.80
2017,06,26,09,27,21.80
2017,06,26,09,28,21.80
2017,06,26,09,29,21.90
2017,06,26,09,30,22.00
2017,06,26,09,31,22.10
2017,06,26,09,32,22.10
2017,06,26,09,33,22.00
2017,06,26,09,34,21.90
2017,06,26,09,35,21.80
2017,06,26,09,36,21.70
2017,06,26,09,37,21.70
2017,06,26,09,38,21.60
2017,06,26,09,39,21.60
2017,06,26,09,40,21.60
2017,06,26,09,41,21.60
2017,06,26,09,42,21.60
2017,06,26,09,43,21.50
2017,06,26,09,44,21.50
2017,06,26,09,45,21.40
2017,06,26,09,46,21.50
2017,06,26,09,47,21.60
2017,06,26,09,48,21.80
2017,06,26,09,49,21.80
2017,06,26,09,50,21.80
2017,06,26,09,51,21.80
2017,06,26,09,52,21.70
2017,06,26,09,53,21.80
2017,06,26,09,54,21.80
2017,06,26,09,55,21.90
2017,06,26,09,56,21.80
2017,06,26,09,57,21.90
2017,06,26,09,58,21.90
2017,06,26,09,59,22.00
2017,06,26,10,00,22.00
2017,06,26,10,01,22.00
2017,06,26,10,02,22.10
2017,06,26,10,03,22.20
2017,06,26,10,04,22.30
2017,06,26,10,05,22.40
2017,06,26,10,06,22.60
2017,06,26,10,07,22.60
2017,06,26,10,08,22.60
2017,06,26,10,09,22.50
2017,06,26,10,10,22.50
2017,06,26,10,11,22.60
2017,06,26,10,12,22.60
2017,06,26,10,13,22.60
2017,06,26,10,14,22.60
2017,06,26,10,15,22.60
2017,06,26,10,16,22.60
2017,06,26,10,17,22.60
2017,06,26,10,18,22.60
2017,06,26,10,19,22.60
2017,06,26,10,20,22.70
2017,06,26,10,21,22.70
2017,06,26,10,22,22.70
2017,06,26,10,23,22.60
2017,06,26,10,24,22.50
2017,06,26,10,25,22.40
2017,06,26,10,26,22.40
2017,06,26,10,27,22.40
2017,06,26,10,28,22.30
2017,06,26,10,29,22.30
2017,06,26,10,30,22.30
2017,06,26,10,31,22.20
2017,06,26,10,32,22.10
2017,06,26,10,33,22.00
2017,06,26,10,34,22.00
2017,06,26,10,35,22.10
2017,06,26,10,36,22.10
2017,06,26,10,37,22.10
2017,06,26,10,38,22.20
2017,06,26,10,39,22.30
2017,06,26,10,40,22.30
2017,06,26,10,41,22.30
2017,06,26,10,42,22.30
2017,06,26,10,43,22.40
2017,06,26,10,44,22.50
2017,06,26,10,45,22.50
2017,06,26,10,46,22.50
2017,06,26,10,47,22.40
2017,06,26,10,48,22.40
2017,06,26,10,49,22.40
2017,06,26,10,50,22.40
2017,06,26,10,51,22.40
2017,06,26,10,52,22.40
2017,06,26,10,53,22.40
2017,06,26,10,54,22.40
2017,06,26,10,55,22.40
2017,06,26,10,56,22.30
2017,06,26,10,57,22.40
2017,06,26,10,58,22.40
2017,06,26,10,59,22.50
2017,06,26,11,00,22.50
2017,06,26,11,01,22.40
2017,06,26,11,02,22.40
2017,06,26,11,03,22.40
2017,06,26,11,04,22.30
2017,06,26,11,05,22.20
2017,06,26,11,06,22.20
2017,06,26,11,07,22.30
2017,06,26,11,08,22.30
2017,06,26,11,09,22.40
2017,06,26,11,10,22.40
2017,06,26,11,11,22.40
2017,06,26,11,12,22.40
2017,06,26,11,13,22.40
2017,06,26,11,14,22.40
2017,06,26,11,15,22.40
2017,06,26,11,16,22.40
2017,06,26,11,17,22.50
2017,06,26,11,18,22.50
2017,06,26,11,19,22.50
2017,06,26,11,20,22.60
2017,06,26,11,21,22.70
2017,06,26,11,22,22.80
2017,06,26,11,23,22.90
2017,06,26,11,24,22.80
2017,06,26,11,25,22.80
2017,06,26,11,26,22.90
2017,06,26,11,27,22.90
2017,06,26,11,28,22.90
2017,06,26,11,29,23.00
2017,06,26,11,30,23.10
2017,06,26,11,31,23.10
2017,06,26,11,32,23.20
2017,06,26,11,33,23.20
2017,06,26,11,34,23.10
2017,06,26,11,35,23.20
2017,06,26,11,36,23.10
2017,06,26,11,37,23.10
2017,06,26,11,38,23.10
2017,06,26,11,39,23.10
2017,06,26,11,40,23.20
2017,06,26,11,41,23.20
2017,06,26,11,42,23.20
2017,06,26,11,43,23.20
2017,06,26,11,44,23.30
2017,06,26,11,45,23.40
2017,06,26,11,46,23.50
2017,06,26,11,47,23.60
2017,06,26,11,48,23.60
2017,06,26,11,49,23.60
2017,06,26,11,50,23.60
2017,06,26,11,51,23.50
2017,06,26,11,52,23.50
2017,06,26,11,53,23.40
2017,06,26,11,54,23.50
2017,06,26,11,55,23.40
2017,06,26,11,56,23.30
2017,06,26,11,57,23.20
2017,06,26,11,58,23.20
2017,06,26,11,59,23.10
2017,06,26,12,00,23.10
2017,06,26,12,01,23.00
2017,06,26,12,02,23.00
2017,06,26,12,03,23.10
2017,06,26,12,04,23.20
2017,06,26,12,05,23.40
2017,06,26,12,06,23.30
2017,06,26,12,07,23.20
2017,06,26,12,08,23.20
2017,06,26,12,09,23.20
2017,06,26,12,10,23.10
2017,06,26,12,11,23.00
2017,06,26,12,12,22.80
2017,06,26,12,13,22.80
2017,06,26,12,14,22.90
2017,06,26,12,15,22.90
2017,06,26,12,16,23.10
2017,06,26,12,17,23.20
2017,06,26,12,18,23.10
2017,06,26,12,19,23.10
2017,06,26,12,20,23.00
2017,06,26,12,21,23.00
2017,06,26,12,22,23.20
2017,06,26,12,23,23.30
2017,06,26,12,24,23.40
2017,06,26,12,25,23.50
2017,06,26,12,26,23.60
2017,06,26,12,27,23.70
2017,06,26,12,28,23.70
2017,06,26,12,29,23.60
2017,06,26,12,30,23.60
2017,06,26,12,31,23.50
2017,06,26,12,32,23.50
2017,06,26,12,33,23.50
2017,06,26,12,34,23.50
2017,06,26,12,35,23.60
2017,06,26,12,36,23.60
2017,06,26,12,37,23.60
2017,06,26,12,38,23.70
2017,06,26,12,39,23.70
2017,06,26,12,40,23.70
2017,06,26,12,41,23.70
2017,06,26,12,42,23.70
2017,06,26,12,43,23.60
2017,06,26,12,44,23.50
2017,06,26,12,45,23.30
2017,06,26,12,46,23.20
2017,06,26,12,47,23.10
2017,06,26,12,48,23.10
2017,06,26,12,49,23.20
2017,06,26,12,50,23.20
2017,06,26,12,51,23.30
2017,06,26,12,52,23.40
2017,06,26,12,53,23.50
2017,06,26,12,54,23.60
2017,06,26,12,55,23.70
2017,06,26,12,56,23.80
2017,06,26,12,57,23.80
2017,06,26,12,58,23.90
2017,06,26,12,59,24.00
2017,06,26,13,00,24.00
2017,06,26,13,01,23.80
2017,06,26,13,02,23.80
2017,06,26,13,03,23.80
2017,06,26,13,04,23.90
2017,06,26,13,05,23.90
2017,06,26,13,06,23.90
2017,06,26,13,07,23.90
2017,06,26,13,08,23.90
2017,06,26,13,09,23.90
2017,06,26,13,10,24.00
2017,06,26,13,11,24.10
2017,06,26,13,12,24.20
2017,06,26,13,13,24.10
2017,06,26,13,14,24.10
2017,06,26,13,15,24.10
2017,06,26,13,16,24.10
2017,06,26,13,17,24.00
2017,06,26,13,18,24.00
2017,06,26,13,19,24.10
2017,06,26,13,20,24.10
2017,06,26,13,21,24.10
2017,06,26,13,22,24.10
2017,06,26,13,23,24.10
2017,06,26,13,24,24.20
2017,06,26,13,25,24.20
2017,06,26,13,26,24.20
2017,06,26,13,27,24.40
2017,06,26,13,28,24.40
2017,06,26,13,29,24.40
2017,06,26,13,30,24.40
2017,06,26,13,31,24.50
2017,06,26,13,32,24.60
2017,06,26,13,33,24.70
2017,06,26,13,34,24.60
2017,06,26,13,35,24.50
2017,06,26,13,36,24.40
2017,06,26,13,37,24.40
2017,06,26,13,38,24.50
2017,06,26,13,39,24.50
2017,06,26,13,40,24.60
2017,06,26,13,41,24.60
2017,06,26,13,42,24.70
2017,06,26,13,43,24.80
2017,06,26,13,44,24.80
2017,06,26,13,45,24.90
2017,06,26,13,46,25.10
2017,06,26,13,47,25.20
2017,06,26,13,48,25.30
2017,06,26,13,49,25.50
2017,06,26,13,50,25.70
2017,06,26,13,51,25.80
2017,06,26,13,52,25.90
2017,06,26,13,53,26.10
2017,06,26,13,54,26.20
2017,06,26,13,55,26.20
2017,06,26,13,56,26.20
2017,06,26,13,57,26.10
2017,06,26,13,58,26.10
2017,06,26,13,59,26.10
2017,06,26,14,00,26.10
2017,06,26,14,01,26.10
2017,06,26,14,02,26.10
2017,06,26,14,03,26.20
2017,06,26,14,04,26.20
2017,06,26,14,05,26.30
2017,06,26,14,06,26.30
2017,06,26,14,07,26.30
2017,06,26,14,08,26.30
2017,06,26,14,09,26.20
2017,06,26,14,10,26.30
2017,06,26,14,11,26.40
2017,06,26,14,12,26.50
2017,06,26,14,13,26.60
2017,06,26,14,14,26.70
2017,06,26,14,15,26.60
2017,06,26,14,16,26.70
2017,06,26,14,17,26.80
2017,06,26,14,18,26.90
2017,06,26,14,19,26.90
2017,06,26,14,20,26.90
2017,06,26,14,21,26.90
2017,06,26,14,22,26.80
2017,06,26,14,23,26.70
2017,06,26,14,24,26.70
2017,06,26,14,25,26.60
2017,06,26,14,26,26.60
2017,06,26,14,27,26.50
2017,06,26,14,28,26.40
2017,06,26,14,29,26.50
2017,06,26,14,30,26.50
2017,06,26,14,31,26.40
2017,06,26,14,32,26.40
2017,06,26,14,33,26.40
2017,06,26,14,34,26.40
2017,06,26,14,35,26.30
2017,06,26,14,36,26.30
2017,06,26,14,37,26.30
2017,06,26,14,38,26.40
2017,06,26,14,39,26.50
2017,06,26,14,40,26.60
2017,06,26,14,41,26.70
2017,06,26,14,42,26.80
2017,06,26,14,43,26.90
2017,06,26,14,44,26.80
2017,06,26,14,45,26.70
2017,06,26,14,46,26.70
2017,06,26,14,47,26.60
2017,06,26,14,48,26.60
2017,06,26,14,49,26.50
2017,06,26,14,50,26.50
2017,06,26,14,51,26.50
2017,06,26,14,52,26.50
2017,06,26,14,53,26.40
2017,06,26,14,54,26.40
2017,06,26,14,55,26.30
2017,06,26,14,56,26.20
2017,06,26,14,57,26.10
2017,06,26,14,58,26.20
2017,06,26,14,59,26.30
2017,06,26,15,00,26.30
2017,06,26,15,01,26.30
2017,06,26,15,02,26.20
2017,06,26,15,03,26.20
2017,06,26,15,04,26.30
2017,06,26,15,05,26.20
2017,06,26,15,06,26.20
2017,06,26,15,07,26.20
2017,06,26,15,08,26.10
2017,06,26,15,09,26.10
2017,06,26,15,10,26.10
2017,06,26,15,11,26.00
2017,06,26,15,12,26.00
2017,06,26,15,13,26.10
2017,06,26,15,14,26.20
2017,06,26,15,15,26.20
2017,06,26,15,16,26.30
2017,06,26,15,17,26.30
2017,06,26,15,18,26.30
2017,06,26,15,19,26.20
2017,06,26,15,20,26.10
2017,06,26,15,21,26.00
2017,06,26,15,22,26.10
2017,06,26,15,23,26.00
2017,06,26,15,24,26.00
2017,06,26,15,25,26.00
2017,06,26,15,26,25.90
2017,06,26,15,27,25.80
2017,06,26,15,28,25.80
2017,06,26,15,29,25.80
2017,06,26,15,30,25.80
2017,06,26,15,31,25.80
2017,06,26,15,32,25.90
2017,06,26,15,33,25.80
2017,06,26,15,34,25.80
2017,06,26,15,35,25.80
2017,06,26,15,36,25.70
2017,06,26,15,37,25.70
2017,06,26,15,38,25.70
2017,06,26,15,39,25.70
2017,06,26,15,40,25.70
2017,06,26,15,41,25.80
2017,06,26,15,42,25.80
2017,06,26,15,43,25.70
2017,06,26,15,44,25.70
2017,06,26,15,45,25.70
2017,06,26,15,46,25.70
2017,06,26,15,47,25.70
2017,06,26,15,48,25.70
2017,06,26,15,49,25.70
2017,06,26,15,50,25.70
2017,06,26,15,51,25.70
2017,06,26,15,52,25.70
2017,06,26,15,53,25.70
2017,06,26,15,54,25.80
2017,06,26,15,55,25.80
2017,06,26,15,56,25.90
2017,06,26,15,57,25.90
2017,06,26,15,58,25.80
2017,06,26,15,59,25.90
2017,06,26,16,00,25.90
2017,06,26,16,01,26.00
2017,06,26,16,02,25.90
2017,06,26,16,03,25.80
2017,06,26,16,04,25.80
2017,06,26,16,05,25.90
2017,06,26,16,06,25.90
2017,06,26,16,07,25.90
2017,06,26,16,08,25.90
2017,06,26,16,09,25.90
2017,06,26,16,10,25.80
2017,06,26,16,11,25.80
2017,06,26,16,12,25.80
2017,06,26,16,13,25.80
2017,06,26,16,14,25.90
2017,06,26,16,15,25.90
2017,06,26,16,16,26.00
2017,06,26,16,17,25.90
2017,06,26,16,18,25.80
2017,06,26,16,19,25.70
2017,06,26,16,20,25.60
2017,06,26,16,21,25.50
2017,06,26,16,22,25.60
2017,06,26,16,23,25.60
2017,06,26,16,24,25.60
2017,06,26,16,25,25.60
2017,06,26,16,26,25.60
2017,06,26,16,27,25.60
2017,06,26,16,28,25.70
2017,06,26,16,29,25.70
2017,06,26,16,30,25.80
2017,06,26,16,31,25.90
2017,06,26,16,32,26.00
2017,06,26,16,33,26.00
2017,06,26,16,34,25.80
2017,06,26,16,35,25.60
2017,06,26,16,36,25.40
2017,06,26,16,37,25.20
2017,06,26,16,38,25.00
2017,06,26,16,39,24.90
2017,06,26,16,40,24.80
2017,06,26,16,41,24.90
2017,06,26,16,42,25.00
2017,06,26,16,43,25.10
2017,06,26,16,44,25.20
2017,06,26,16,45,25.30
2017,06,26,16,46,25.40
2017,06,26,16,47,25.50
2017,06,26,16,48,25.50
2017,06,26,16,49,25.60
2017,06,26,16,50,25.60
2017,06,26,16,51,25.50
2017,06,26,16,52,25.40
2017,06,26,16,53,25.30
2017,06,26,16,54,25.10
2017,06,26,16,55,25.10
2017,06,26,16,56,25.10
2017,06,26,16,57,25.10
2017,06,26,16,58,25.20
2017,06,26,16,59,25.30
2017,06,26,17,00,25.10
2017,06,26,17,01,24.90
2017,06,26,17,02,24.70
2017,06,26,17,03,24.70
2017,06,26,17,04,24.60
2017,06,26,17,05,24.60
2017,06,26,17,06,24.50
2017,06,26,17,07,24.40
2017,06,26,17,08,24.30
2017,06,26,17,09,24.20
2017,06,26,17,10,24.30
2017,06,26,17,11,24.30
2017,06,26,17,12,24.30
2017,06,26,17,13,24.40
2017,06,26,17,14,24.30
2017,06,26,17,15,24.20
2017,06,26,17,16,24.10
2017,06,26,17,17,23.90
2017,06,26,17,18,23.90
2017,06,26,17,19,23.90